Home > Weather > Walvis Bay > Past weeks

Flag for Namibia Weather for the Past 2 Weeks in Walvis Bay, Namibia

Now
73 °F

Mild.


Feels Like: 76 °F
Forecast: 67 / 76 °F
Wind: 9 mph from West

Location: Walvis Bay

Current Time: Feb 7, 2016 at 3:51:24 PM

Latest Report: Feb 7, 2016 at 3:00 PM


Visibility: N/A

Pressure: 30.01 "Hg

Humidity: 65%

Dew point: 61 °F

Location of Walvis BayLocation

Historic Weather in Walvis Bay — Graph

°F

Walvis Bay Temperature Yesterday

Maximum temperature yesterday: 84 °F (at 1:00 PM)
Minimum temperature yesterday: 68 °F (at 10:00 PM)
Average temperature yesterday: 75 °F

High & Low Weather Summary for the Past Weeks

 TemperatureHumidityPressure
High90 °F (Jan 30, 2:00 PM)88% (Jan 24, 12:00 AM)30.07 "Hg (Jan 24, 12:00 AM)
Low57 °F (Jan 28, 6:00 AM)38% (Jan 30, 2:00 PM)29.77 "Hg (Jan 31, 5:00 PM)
Average72 °F70%29.95 "Hg
* Reported Jan 23 3:00 PM — Feb 7 3:00 PM, Walvis Bay, Weather by CustomWeather, © 2016

Note: Actual official high and low records may vary slightly from our data, if they occured in-between our weather recording intervals... More about our weather records

Advertising

Walvis Bay Weather History for the Previous 24 Hours

 ConditionsComfort  
Time TempWeatherWind HumidityBarometerVisibility
3:00 PM
Sun, Feb 7
73 °FMild.9 mph65%30.01 "HgN/A
2:00 PM75 °FScattered clouds.9 mph61%30.01 "HgN/A
1:00 PM72 °FScattered clouds.9 mph69%30.04 "HgN/A
12:00 PM68 °FPartly sunny.9 mph78%30.04 "HgN/A
11:00 AM66 °FOvercast.10 mph83%30.07 "HgN/A
10:00 AM64 °FLow clouds.6 mph88%30.04 "HgN/A
9:00 AM64 °FLow clouds.8 mph88%30.04 "HgN/A
8:00 AM64 °FLow clouds.7 mph88%30.04 "HgN/A
7:00 AM64 °FLow clouds.7 mph88%30.01 "HgN/A
6:00 AM64 °FLow clouds.7 mph88%29.98 "HgN/A
5:00 AM64 °FMild.6 mph88%29.98 "HgN/A
4:00 AM64 °FMild.5 mph83%29.98 "HgN/A
3:00 AM64 °FMild.3 mph83%29.98 "HgN/A
2:00 AM64 °FMild.3 mph83%29.98 "HgN/A
1:00 AM66 °FMild.3 mph83%30.01 "HgN/A
12:00 AM66 °FMild.3 mph83%30.01 "HgN/A
11:00 PM
Sat, Feb 6
68 °FMild.3 mph73%30.01 "HgN/A
10:00 PM68 °FMild.8 mph73%30.01 "HgN/A
6:00 PM75 °FMild.15 mph54%29.92 "HgN/A
4:00 PM77 °FWarm.20 mph51%29.92 "HgN/A
3:00 PM77 °FWarm.20 mph51%29.95 "HgN/A
Weather by CustomWeather, © 2016

See weather overviewHow to use our weather pages